Location: Newark
(32.8014°N, 52.8711°E)
Time: 20:59:48
(UTC+00:00)

Envisat - Pass Details

Date: 31 January 2020
Orbit: 764 x 766 km, 98.1° (Epoch: 25 February)

Event Time Altitude Azimuth Distance (km) Brightness Sun altitude
Rises 15:21:06 0° 199° (SSW) 3,217 6.6 -17.4°
Reaches altitude 10° 15:23:52 10° 214° (SW) 2,295 6.1 -17.9°
Maximum altitude 15:27:45 22° 265° (W) 1,621 5.6 -18.8°
Drops below altitude 10° 15:31:40 10° 315° (NW) 2,305 5.9 -19.6°
Sets 15:34:28 0° 331° (NNW) 3,235 6.5 -20.1°
